When you browse on this site, cookies collect data to enhance your experience and personalize the content and advertising you see.
Visit our Privacy Policy to learn more. By continuing to use the site, you agree to this use of cookies and data.
  • en France
  • Liste des pays
  • À 7 jours
  • Température de l'eau
  • Carte satellitaire
  • Carte météo
  • Widgets météo
  • user-avatar
    Se connecter

    Météo par heure à Vratsa

    Ce jour, 27 Mai, Lundi

    Heure Température Précipitation Vent Pression Humidité
    00:00 +16°C° 0 mm 1 m/s 709 mmHg 80%
    01:00 +15°C° 0 mm 1 m/s 709 mmHg 81%
    02:00 +15°C° 0 mm 2 m/s 708 mmHg 81%
    03:00 +15°C° 0 mm 2 m/s 708 mmHg 81%
    04:00 +14°C° 0 mm 2 m/s 708 mmHg 81%
    05:00 +14°C° 0 mm 2 m/s 708 mmHg 82%
    06:00 +16°C° 0 mm 1 m/s 708 mmHg 77%
    07:00 +19°C° 0 mm 1 m/s 709 mmHg 73%
    08:00 +21°C° 0 mm 1 m/s 709 mmHg 69%
    09:00 +22°C° 0 mm 1 m/s 709 mmHg 64%
    10:00 +24°C° 0 mm 1 m/s 709 mmHg 60%
    11:00 +25°C° 0 mm 2 m/s 709 mmHg 55%
    12:00 +25°C° 0.2 mm 2 m/s 709 mmHg 57%
    13:00 +26°C° 0.2 mm 2 m/s 708 mmHg 58%
    14:00 +26°C° 0.2 mm 2 m/s 708 mmHg 59%
    15:00 +25°C° 0.4 mm 2 m/s 708 mmHg 65%
    16:00 +24°C° 0.4 mm 2 m/s 707 mmHg 71%
    17:00 +23°C° 0.4 mm 2 m/s 707 mmHg 77%
    18:00 +21°C° 0 mm 2 m/s 707 mmHg 78%
    19:00 +20°C° 0 mm 2 m/s 706 mmHg 79%
    20:00 +19°C° 0 mm 2 m/s 706 mmHg 79%
    21:00 +18°C° 0 mm 2 m/s 706 mmHg 81%
    22:00 +17°C° 0 mm 2 m/s 706 mmHg 82%
    23:00 +16°C° 0 mm 2 m/s 706 mmHg 83%

    Demain, 28 Mai, Mardi

    Heure Température Précipitation Vent Pression Humidité
    00:00 +16°C° 0 mm 2 m/s 706 mmHg 83%
    01:00 +15°C° 0 mm 2 m/s 706 mmHg 83%
    02:00 +15°C° 0 mm 2 m/s 706 mmHg 82%
    03:00 +14°C° 0 mm 2 m/s 705 mmHg 82%
    04:00 +14°C° 0 mm 2 m/s 705 mmHg 82%
    05:00 +13°C° 0 mm 2 m/s 705 mmHg 81%
    06:00 +15°C° 0 mm 2 m/s 705 mmHg 76%
    07:00 +17°C° 0 mm 2 m/s 705 mmHg 71%
    08:00 +19°C° 0 mm 2 m/s 705 mmHg 66%
    09:00 +21°C° 0 mm 2 m/s 705 mmHg 59%
    10:00 +24°C° 0 mm 2 m/s 705 mmHg 51%
    11:00 +26°C° 0 mm 2 m/s 705 mmHg 44%
    12:00 +26°C° 0 mm 2 m/s 705 mmHg 42%
    13:00 +27°C° 0 mm 2 m/s 705 mmHg 41%
    14:00 +28°C° 0 mm 2 m/s 704 mmHg 40%
    15:00 +27°C° 0 mm 2 m/s 704 mmHg 44%
    16:00 +27°C° 0 mm 2 m/s 704 mmHg 47%
    17:00 +26°C° 0 mm 2 m/s 703 mmHg 51%
    18:00 +24°C° 0 mm 2 m/s 703 mmHg 56%
    19:00 +21°C° 0 mm 2 m/s 703 mmHg 61%
    20:00 +19°C° 0 mm 3 m/s 703 mmHg 65%
    21:00 +18°C° 0 mm 2 m/s 703 mmHg 67%
    22:00 +17°C° 0 mm 2 m/s 703 mmHg 69%
    23:00 +17°C° 0 mm 2 m/s 704 mmHg 70%

    Après-demain, 29 Mai, Mercredi

    Heure Température Précipitation Vent Pression Humidité
    00:00 +16°C° 0.1 mm 2 m/s 704 mmHg 73%
    01:00 +15°C° 0.1 mm 2 m/s 704 mmHg 76%
    02:00 +15°C° 0.1 mm 2 m/s 704 mmHg 78%
    03:00 +15°C° 0 mm 2 m/s 704 mmHg 79%
    04:00 +14°C° 0 mm 2 m/s 704 mmHg 79%
    05:00 +14°C° 0 mm 2 m/s 704 mmHg 80%
    06:00 +16°C° 0 mm 2 m/s 705 mmHg 75%
    07:00 +19°C° 0 mm 1 m/s 705 mmHg 71%
    08:00 +20°C° 0 mm 1 m/s 706 mmHg 67%
    09:00 +22°C° 0.1 mm 1 m/s 706 mmHg 62%
    10:00 +23°C° 0.1 mm 1 m/s 706 mmHg 57%
    11:00 +23°C° 0.1 mm 0 m/s 706 mmHg 52%
    12:00 +25°C° 0.2 mm 1 m/s 706 mmHg 51%
    13:00 +25°C° 0.2 mm 1 m/s 706 mmHg 50%
    14:00 +26°C° 0.2 mm 1 m/s 706 mmHg 49%
    15:00 +26°C° 0.3 mm 1 m/s 706 mmHg 51%
    16:00 +25°C° 0.3 mm 1 m/s 706 mmHg 52%
    17:00 +25°C° 0.3 mm 1 m/s 706 mmHg 54%
    18:00 +23°C° 0.4 mm 1 m/s 706 mmHg 60%
    19:00 +21°C° 0.4 mm 1 m/s 706 mmHg 66%
    20:00 +19°C° 0.4 mm 1 m/s 706 mmHg 72%
    21:00 +19°C° 0.6 mm 1 m/s 706 mmHg 76%
    22:00 +18°C° 0.6 mm 1 m/s 706 mmHg 79%
    23:00 +16°C° 0.6 mm 1 m/s 706 mmHg 82%

    30 Mai, Jeudi

    Heure Température Précipitation Vent Pression Humidité
    00:00 +16°C° 0.1 mm 1 m/s 706 mmHg 82%
    01:00 +15°C° 0.1 mm 1 m/s 706 mmHg 82%
    02:00 +15°C° 0.1 mm 1 m/s 707 mmHg 82%
    03:00 +15°C° 0 mm 1 m/s 707 mmHg 81%
    04:00 +14°C° 0 mm 1 m/s 707 mmHg 81%
    05:00 +14°C° 0 mm 1 m/s 707 mmHg 81%
    06:00 +15°C° 0 mm 1 m/s 707 mmHg 80%
    07:00 +16°C° 0 mm 1 m/s 707 mmHg 79%
    08:00 +18°C° 0 mm 1 m/s 707 mmHg 78%
    09:00 +19°C° 0.1 mm 1 m/s 708 mmHg 75%
    10:00 +19°C° 0.1 mm 2 m/s 708 mmHg 72%
    11:00 +20°C° 0.1 mm 2 m/s 708 mmHg 69%
    12:00 +20°C° 0.6 mm 2 m/s 708 mmHg 69%
    13:00 +21°C° 0.6 mm 2 m/s 708 mmHg 69%
    14:00 +21°C° 0.6 mm 2 m/s 707 mmHg 69%
    15:00 +21°C° 2.2 mm 2 m/s 707 mmHg 71%
    16:00 +20°C° 2.2 mm 2 m/s 707 mmHg 74%
    17:00 +20°C° 2.2 mm 2 m/s 707 mmHg 77%
    18:00 +19°C° 1.8 mm 2 m/s 707 mmHg 80%
    19:00 +17°C° 1.8 mm 2 m/s 707 mmHg 83%
    20:00 +16°C° 1.8 mm 2 m/s 707 mmHg 87%
    21:00 +15°C° 1.6 mm 2 m/s 707 mmHg 89%
    22:00 +15°C° 1.6 mm 2 m/s 707 mmHg 90%
    23:00 +14°C° 1.6 mm 2 m/s 707 mmHg 92%

    31 Mai, Vendredi

    Heure Température Précipitation Vent Pression Humidité
    00:00 +14°C° 0.1 mm 2 m/s 707 mmHg 92%
    01:00 +13°C° 0.1 mm 2 m/s 707 mmHg 92%
    02:00 +13°C° 0.1 mm 2 m/s 707 mmHg 92%
    03:00 +13°C° 0 mm 2 m/s 707 mmHg 92%
    04:00 +13°C° 0 mm 2 m/s 707 mmHg 91%
    05:00 +13°C° 0 mm 2 m/s 706 mmHg 91%
    06:00 +14°C° 0.4 mm 2 m/s 707 mmHg 90%
    07:00 +14°C° 0.4 mm 2 m/s 707 mmHg 89%
    08:00 +14°C° 0.4 mm 2 m/s 707 mmHg 89%
    09:00 +15°C° 0.5 mm 2 m/s 707 mmHg 88%
    10:00 +15°C° 0.5 mm 2 m/s 707 mmHg 88%
    11:00 +15°C° 0.5 mm 2 m/s 706 mmHg 87%
    12:00 +15°C° 0.2 mm 2 m/s 706 mmHg 84%
    13:00 +16°C° 0.2 mm 2 m/s 706 mmHg 82%
    14:00 +16°C° 0.2 mm 3 m/s 706 mmHg 79%
    15:00 +17°C° 0 mm 3 m/s 706 mmHg 77%
    16:00 +17°C° 0 mm 3 m/s 706 mmHg 75%
    17:00 +17°C° 0 mm 3 m/s 706 mmHg 73%
    18:00 +16°C° 0 mm 2 m/s 706 mmHg 77%
    19:00 +15°C° 0 mm 2 m/s 706 mmHg 81%
    20:00 +14°C° 0 mm 1 m/s 706 mmHg 84%
    21:00 +13°C° 0 mm 2 m/s 706 mmHg 86%
    22:00 +13°C° 0 mm 2 m/s 706 mmHg 87%
    23:00 +12°C° 0 mm 2 m/s 706 mmHg 88%

    1 Juin, Samedi

    Heure Température Précipitation Vent Pression Humidité
    00:00 +10°C° 0 mm 2 m/s 706 mmHg 88%
    01:00 +10°C° 0 mm 2 m/s 705 mmHg 89%
    02:00 +10°C° 0 mm 2 m/s 705 mmHg 89%
    03:00 +10°C° 0 mm 2 m/s 705 mmHg 89%
    04:00 +9°C° 0 mm 2 m/s 705 mmHg 89%
    05:00 +9°C° 0 mm 2 m/s 705 mmHg 89%
    06:00 +12°C° 0 mm 2 m/s 705 mmHg 84%
    07:00 +14°C° 0 mm 2 m/s 705 mmHg 79%
    08:00 +16°C° 0 mm 2 m/s 706 mmHg 74%
    09:00 +17°C° 0 mm 2 m/s 706 mmHg 71%
    10:00 +18°C° 0 mm 2 m/s 706 mmHg 68%
    11:00 +19°C° 0 mm 2 m/s 706 mmHg 65%
    12:00 +19°C° 0.3 mm 2 m/s 705 mmHg 66%
    13:00 +20°C° 0.3 mm 3 m/s 705 mmHg 67%
    14:00 +20°C° 0.3 mm 3 m/s 705 mmHg 68%
    15:00 +20°C° 1 mm 3 m/s 705 mmHg 70%
    16:00 +19°C° 1 mm 3 m/s 705 mmHg 73%
    17:00 +19°C° 1 mm 3 m/s 705 mmHg 75%
    18:00 +18°C° 0.6 mm 3 m/s 705 mmHg 79%
    19:00 +16°C° 0.6 mm 2 m/s 705 mmHg 83%
    20:00 +15°C° 0.6 mm 2 m/s 705 mmHg 86%
    21:00 +14°C° 0.1 mm 2 m/s 705 mmHg 88%
    22:00 +13°C° 0.1 mm 2 m/s 705 mmHg 89%
    23:00 +13°C° 0.1 mm 2 m/s 705 mmHg 90%
    Voir plus